Location: Roah Hook
(42.4840°N, 73.7893°W)
Time: 09:06:59
(UTC+00:00)

ARIANE 6 FM1 Upper Stage - Pass Details

Date: 18 October 2024
Orbit: 558 x 596 km, 62.0° (Epoch: 11 November)

Event Time Altitude Azimuth Distance (km) Brightness Sun altitude
Rises 01:08:03 0° 319° (NW) 2,833 7.1 -33.4°
Reaches altitude 10° 01:10:19 10° 315° (NW) 1,933 6.1 -33.8°
Enters shadow 01:11:41 19° 311° (NW) 1,418 5.2 -34.1°
